THOR ABLESTAR DEB, 48814

Orbit data source: Space-Track

THOR ABLESTAR DEB, 48814 is space debris in LEO originally from a launch on Thu, 29 Jun 1961 UTC launched from the Air Force Eastern Test Range (AFETR). Debris objects in space refer to the collection of defunct objects orbiting the Earth. Examples of debris include non-operational satellites, rocket bodies, and fragments generated from explosions, collisions, or faulty payload assembly.

Loading next visibility...
Identifier
48814, 1961-015MS
Orbit
LEO
Country
Flag of USUS
Related business
Manufacturer
Unknown
Mission
Spacecraft
Bus & Motor
Unknown
Mass
Unknown
Launch date (UTC)
1961-06-29 (65 years ago)
Launch vehicle
Unknown
Launch site
Air Force Eastern Test Range (AFETR)
Object type
Payload
Rocket body
Debris
Shape & HBR
Unknown shape, 0.1 m
Radar Cross Section
Medium (>0.1 m² and <1 m²)

Expand to show TLE details & history
Last TLE update: 18 hours ago

TLE from 18 hours ago
0 THOR ABLESTAR DEB
1 48814U 61015MS  26219.66120155  .00001479  00000-0  11001-2 0  9990
2 48814  65.9029 102.5571 0016592 132.4616 227.7865 13.97947269642764
Epoch: 2026-08-07T15:52Z
TLE epoch observation values (Epoch: 2026-08-07T15:52:07.813Z)
Latitude
-0.00003°
Longitude
-91.65916°
Altitude
911.052 km
Speed
7.393 km/s
True Right ascension
06h 50m 13s
True Declination
0° 00' 00"
Sunlit
Object was in daylight at epoch
Visualization orbit readout
Latitude
Unknown
Longitude
Unknown
Altitude
Unknown
Speed
Unknown
Apparent Right ascension
Unknown
Apparent Declination
Unknown
Sunlit
N/A
Visualization observer readout
Local Sidereal Time
23:37:42
Azimuth
Unknown
Elevation
Unknown
Doppler factor
Unknown
Orbital elements
Apogee altitude
911.479 km
Perigee altitude
887.33 km
Semi-major axis
7,277.541 km
Eccentricity
0.00166
Inclination
65.9029°
RAAN
102.5571°
Arg. of periapsis
132.4616°
True anomaly
227.64588°
Mean anomaly
227.7865°
Eccentric anomaly
227.71617°
Mean motion
3.49596 °/min
Orbital period
102.98 mins
BSTAR
0.0011001
Loading maneuver chart data...
Computing Atmospheric mass density...
Loading historical data...
Loading historical data...
Loading historical data...
Loading historical data...
Loading historical data...
Loading historical data...
Loading historical data...

Documentation

Showing up to 5 results
|